WB5OMR-9 Weather Reports


Display with metric or nautical units.
time (UTC)temp
F
wind
direction
speed
MPH
gust
MPH
rain 1hr
in
rain 24hr
in
rain mn
in
humidity
%
barometer
mb
20220518135532 75 0.0 0.0 0.00 0.09 0.02 93 1014.4
20220518134532 75 0.0 0.0 0.00 0.09 0.02 94 1014.2
20220518133530 75 0.0 0.0 0.00 0.09 0.02 95 1014.2
20220518132530 75 0.0 0.0 0.00 0.09 0.02 99 1014.1
20220518131529 75 0.0 0.0 0.00 0.09 0.02 100 1014.3
20220518130528 75 0.0 0.0 0.00 0.09 0.02 100 1014.1
20220518125527 74 0.0 0.0 0.00 0.09 0.02 100 1014.1
20220518124538 74 0.0 0.0 0.00 0.09 0.02 100 1013.9
20220518123538 74 0.0 0.0 0.00 0.09 0.02 100 1013.8
20220518122537 74 0.0 0.0 0.00 0.09 0.02 100 1013.7
20220518121537 73 0.0 0.0 0.00 0.09 0.02 100 1013.4
20220518120537 73 0.0 0.0 0.00 0.09 0.02 100 1013.4
20220518115536 72 0.0 0.0 0.00 0.09 0.02 100 1012.7
20220518114535 72 0.0 0.0 0.00 0.09 0.02 100 1012.9
20220518113534 72 0.0 0.0 0.00 0.09 0.02 100 1012.8
20220518112533 73 0.0 0.0 0.00 0.09 0.02 100 1013.0
20220518111533 73 0.0 0.0 0.00 0.09 0.02 100 1013.5
20220518110532 72 0.0 0.0 0.00 0.09 0.02 100 1013.1
20220518105531 72 0.0 0.0 0.00 0.09 0.02 100 1012.2
20220518104531 72 0.0 0.0 0.00 0.09 0.02 100 1012.5
20220518103530 73 0.0 0.0 0.00 0.09 0.02 100 1012.7
20220518102529 73 0.0 0.0 0.00 0.09 0.02 100 1013.0
20220518101539 73 0.0 0.0 0.00 0.09 0.02 100 1013.4
20220518100538 74 0.0 0.0 0.00 0.09 0.02 100 1013.6
20220518095537 74 0.0 0.0 0.00 0.09 0.02 100 1013.9
20220518094537 73 0.0 0.0 0.00 0.09 0.02 100 1013.7
20220518093536 73 0.0 0.0 0.00 0.09 0.02 100 1013.5
20220518092535 73 0.0 0.0 0.00 0.09 0.02 100 1013.3
20220518091534 73 0.0 0.0 0.00 0.09 0.02 100 1013.4
20220518090534 73 0.0 0.0 0.00 0.09 0.02 100 1013.5
20220518085533 73 0.0 0.0 0.00 0.09 0.02 100 1013.6
20220518084532 74 0.0 0.0 0.00 0.09 0.02 100 1013.7
20220518083531 74 0.0 0.0 0.02 0.09 0.02 97 1013.8
20220518082531 75 0.0 0.0 0.02 0.09 0.02 92 1014.0
20220518081530 75 0.0 0.0 0.02 0.09 0.02 92 1014.2
20220518080529 75 0.0 0.0 0.02 0.09 0.02 95 1014.2
20220518075528 74 0.0 0.0 0.02 0.09 0.02 99 1014.2
20220518074528 74 0.0 0.0 0.02 0.09 0.02 100 1014.1
20220518073538 74 0.0 0.0 0.00 0.06 0.00 98 1014.1
20220518072538 74 0.0 0.0 0.00 0.06 0.00 95 1014.3
20220518071537 74 0.0 0.0 0.00 0.09 0.00 93 1014.5
20220518070535 75 0.0 0.0 0.00 0.09 0.00 92 1014.8
20220518065535 75 0.0 0.0 0.00 0.09 0.00 88 1015.0
20220518064534 77 0.0 0.0 0.00 0.09 0.00 83 1015.2
20220518063534 77 0.0 0.0 0.00 0.09 0.00 79 1015.4
20220518062532 77 0.0 0.0 0.00 0.09 0.00 79 1015.5
20220518061532 77 0.0 0.0 0.00 0.09 0.00 82 1015.3
20220518060531 76 0.0 0.0 0.00 0.09 0.00 85 1014.8
20220518055530 76 0.0 0.0 0.00 0.09 0.00 85 1014.6
20220518054529 77 0.0 0.0 0.00 0.09 0.00 84 1014.2
20220518053529 77 0.0 0.0 0.00 0.09 0.00 83 1013.9
20220518052528 77 0.0 0.0 0.00 0.09 0.00 81 1014.1
20220518051527 78 0.0 0.0 0.00 0.09 0.00 80 1014.1
20220518050538 78 0.0 0.0 0.00 0.09 0.00 79 1014.0
20220518045537 78 0.0 0.0 0.00 0.09 0.09 80 1014.0
20220518044537 79 0.0 0.0 0.00 0.09 0.09 81 1013.8
20220518043536 79 0.0 0.0 0.00 0.11 0.09 80 1013.5
20220518042535 79 0.0 0.0 0.00 0.11 0.09 80 1013.3
20220518041534 80 0.0 0.0 0.00 0.11 0.09 79 1013.2
20220518040534 80 0.0 0.0 0.00 0.11 0.09 78 1013.2
20220518035533 80 0.0 0.0 0.00 0.11 0.09 78 1012.9
20220518034532 81 0.0 0.0 0.00 0.11 0.09 77 1012.8
20220518033532 81 0.0 0.0 0.00 0.11 0.09 75 1012.6
20220518032531 82 0.0 0.0 0.02 0.11 0.09 74 1012.6
20220518031530 82 0.0 0.0 0.02 0.11 0.09 72 1012.3
20220518030529 83 0.0 0.0 0.02 0.11 0.09 70 1012.1
20220518025529 83 0.0 0.0 0.04 0.11 0.09 69 1011.9
20220518024528 84 0.0 0.0 0.04 0.11 0.09 68 1011.7
20220518023528 84 0.0 0.0 0.04 0.11 0.09 66 1011.5
20220518022538 85 0.0 0.0 0.02 0.09 0.06 64 1011.4
20220518021537 86 0.0 0.0 0.02 0.09 0.06 62 1011.2
20220518020537 87 0.0 0.0 0.02 0.09 0.06 60 1011.0
20220518015536 87 0.0 0.0 0.00 0.06 0.04 59 1010.8
20220518014536 88 0.0 0.0 0.00 0.06 0.04 57 1010.8
20220518013535 89 0.0 0.0 0.00 0.06 0.04 54 1010.5
20220518012534 90 0.0 0.0 0.00 0.06 0.04 52 1010.3
20220518011533 91 0.0 0.0 0.00 0.06 0.04 48 1010.1
20220518010532 92 0.0 0.0 0.00 0.06 0.04 45 1009.9
20220518005531 94 0.0 0.0 0.00 0.09 0.04 38 1009.6
20220518004530 95 0.0 0.0 0.00 0.09 0.04 36 1009.5
20220518003529 95 0.0 0.0 0.00 0.09 0.04 34 1009.4
20220518002529 96 0.0 0.0 0.00 0.09 0.04 32 1009.4
20220518001528 98 0.0 0.0 0.00 0.09 0.04 29 1009.3
20220518000539 98 0.0 0.0 0.00 0.09 0.04 24 1009.1
20220517235538 99 0.0 0.0 0.00 0.09 0.04 24 1009.1
20220517234537 99 0.0 0.0 0.00 0.09 0.04 24 1009.1
20220517233535 100 0.0 0.0 0.00 0.09 0.04 24 1009.1
20220517232534 101 0.0 0.0 0.00 0.09 0.04 23 1009.1
20220517231533 101 0.0 0.0 0.00 0.09 0.04 23 1009.1
20220517230533 100 0.0 0.0 0.00 0.09 0.04 24 1009.3
20220517225532 100 0.0 0.0 0.00 0.09 0.04 24 1009.4
20220517224531 99 0.0 0.0 0.00 0.09 0.04 25 1009.4
20220517223530 99 0.0 0.0 0.00 0.09 0.04 24 1009.5
20220517222530 99 0.0 0.0 0.00 0.09 0.04 25 1009.6
20220517221529 99 0.0 0.0 0.00 0.09 0.04 25 1009.6
20220517220527 100 0.0 0.0 0.00 0.09 0.04 25 1009.8
20220517215538 101 0.0 0.0 0.00 0.09 0.04 24 1009.8
20220517214537 101 0.0 0.0 0.00 0.09 0.04 24 1009.9
20220517213537 102 0.0 0.0 0.00 0.09 0.04 24 1010.0
20220517212535 104 0.0 0.0 0.00 0.09 0.04 22 1010.0
20220517211535 104 0.0 0.0 0.00 0.09 0.04 22 1010.1
20220517210534 103 0.0 0.0 0.00 0.09 0.04 21 1010.3
20220517205533 104 0.0 0.0 0.00 0.09 0.04 21 1010.5
20220517204532 104 0.0 0.0 0.00 0.09 0.04 22 1010.6
20220517203531 103 0.0 0.0 0.00 0.09 0.04 21 1010.8
20220517202531 103 0.0 0.0 0.00 0.09 0.04 23 1011.0
20220517201529 103 0.0 0.0 0.00 0.09 0.04 22 1011.1
20220517200529 102 0.0 0.0 0.00 0.09 0.04 22 1011.3
20220517195539 102 0.0 0.0 0.00 0.09 0.04 23 1011.6
20220517194538 102 0.0 0.0 0.00 0.09 0.04 23 1011.6
20220517193537 101 0.0 0.0 0.00 0.09 0.04 24 1011.9
20220517192536 102 0.0 0.0 0.00 0.09 0.04 24 1012.1
20220517191536 101 0.0 0.0 0.00 0.09 0.04 25 1012.2
20220517190535 101 0.0 0.0 0.00 0.09 0.04 26 1012.3
20220517185533 101 0.0 0.0 0.00 0.09 0.04 26 1012.4
20220517184532 100 0.0 0.0 0.00 0.09 0.04 29 1012.6
20220517183532 99 0.0 0.0 0.00 0.09 0.04 30 1012.8
20220517182531 97 0.0 0.0 0.00 0.09 0.04 32 1013.0
20220517181530 97 0.0 0.0 0.00 0.09 0.04 34 1013.2
20220517180529 97 0.0 0.0 0.00 0.09 0.04 34 1013.4
20220517175528 96 0.0 0.0 0.00 0.09 0.04 36 1013.5
20220517174528 95 0.0 0.0 0.00 0.09 0.04 38 1013.6
20220517173527 94 0.0 0.0 0.00 0.09 0.04 40 1013.8
20220517172539 94 0.0 0.0 0.00 0.09 0.04 41 1013.9
20220517171538 93 0.0 0.0 0.00 0.09 0.04 43 1014.1
20220517170537 91 0.0 0.0 0.00 0.09 0.04 46 1014.3
20220517165536 90 0.0 0.0 0.00 0.09 0.04 48 1014.4